NOAA 16 DEB

Satellite information

Favourite Embed

Satellite Type and Status

DEBRISIN ORBIT

Key statistics

Satellite NOAA 16 DEB at a glance.

Uptime

9116

Days in orbit

Revolutions

≈ 14.5

Per day

Orbit

SSO

Sun Synchronous Orbit

Inclination

99.0

Latest

Satellite identification and parameters

Extended collection of information and parameters for NOAA 16 DEB.

Object identification

Identified? True

Debris? True

Object name: NOAA 16 DEB

International designator: 2000-055HV

Object number (NORAD): 41352

Object ID (CCSDS): 41352

Country: UNITED STATES OF AMERICA (US)

Current information (Y/N): Y

RCS size: SMALL

Orbital parameters

Period: 99.29 minutes

Inclination: 98.9643 deg

SMA: 7102.798 km

Apoapsis: 749.586 km

Periapsis: 699.74 km

RAAN: 70.9766 deg

Eccentricy: 0.00350892

Argument of periapsis: 173.1261 deg

Mean anomaly: 187.042 deg

Mean motion: 14.50302482 rev/day

Mean motion (dot): 0.00011612 rev/day2

B* drag term: 0.0029643671 1/REarth

Two-line elements (TLE)

Creation date: Sept. 5, 2025, 4:46 a.m.

Reference frame: TEME

Reference center: EARTH

Epoch: Sept. 4, 2025, 11:26 a.m. UTC

TLE line 0: 0 NOAA 16 DEB

TLE line 1: 1 41352U 00055HV 25247.47650110 .00011612 00000-0 29644-2 0 9997

TLE line 2: 2 41352 98.9643 70.9766 0035089 173.1261 187.0420 14.50302482501666

Live tracking on map

Real-time ground track for satellite NOAA 16 DEB.

In-orbit conjunctions

A list of the most updated potential collisions computed for object NOAA 16 DEB.

Target Orbit TCA Probability of collision Miss distance Type
IRIDIUM 42 LEO 2024-12-20 05:02:39 0.0002229383 479.0 (m) PAYLOAD
ATLAS CENTAUR R/B LEO 2024-12-14 13:09:55 0.0003924212 158.0 (m) ROCKET BODY
NOAA 16 DEB SSO 2024-11-13 09:26:56 0.0001958284 534.0 (m) DEBRIS
CZ-6A DEB LEO 2024-11-12 01:49:49 0.000114617 252.0 (m) DEBRIS
CZ-6A DEB SSO 2024-11-12 00:12:37 0.000466227 289.0 (m) DEBRIS

Associated space launch

The NOAA K, L and M POES satellites begin the fifth generation of improved environmental monitoring in support of NOAA missions. The instrument payload has significant improvements and additions/deletions. The instrument changes have effected the spacecraft subsystems and data formats.

NOAA 16 DEB was lifted into orbit during the mission ‘Titan II SLV | NOAA 16’, on board a Titan II SLV space rocket.

The launch took place on Sept. 21, 2000, 10:22 a.m. from Space Launch Complex 4W.

For more information about the launch, click the button.

Launch to space Titan II SLV | NOAA 16
Titan II SLV | NOAA 16

Agency: N/A

Status: Launch Successful

Launch date: Sept. 21, 2000, 10:22 a.m. UTC

Rocket: Titan II SLV

Launch pad: Space Launch Complex 4W

Location: Vandenberg SFB, CA, USA

...

Latest news about this satellite

There are no fresh news available about this satellite. Check back as we update our databases every day.


Newsletter sign-up

Weekly statistics, charts and insights to help you stay on top of the space industry.